Location: Daytona Beach
(29.2106°N, 81.0231°W)
Time: 02:10:53
(UTC-04:00)

RS-15 - Pass Details

Date: 01 October 2021
Orbit: 1884 x 2160 km, 64.8° (Epoch: 22 October)

Event Time Altitude Azimuth Distance (km) Brightness Sun altitude
Rises 23:43:26 0° 337° (NNW) 5,639 10.9 -56.7°
Reaches altitude 10° 23:47:12 10° 344° (NNW) 4,655 10.3 -57.3°
Enters shadow 23:52:46 29° 3° (N) 3,390 9.3 -58.1°
